Buies Creek, NC

5:51 PM EST on January 21, 2017 (GMT -0500)
Erwin

Weather History for KHRJ - October, 2013

Change the Weather History Date:

Wednesday, October 9, 2013

  Actual Average Record
Temperature  
Mean Temperature 61 °F -  
Max Temperature 65 °F 75 °F 95 °F (2007)
Min Temperature 57 °F 50 °F 32 °F (1978)
Degree Days  
Heating Degree Days 4    
Growing Degree Days 11 (Base 50)    
Moisture  
Dew Point 53 °F    
Average Humidity 78    
Maximum Humidity 99    
Minimum Humidity 71    
Precipitation  
Precipitation 0.03 in - - ()
Sea Level Pressure  
Sea Level Pressure 30.11 in    
Wind  
Wind Speed 8 mph (North)    
Max Wind Speed 12 mph    
Max Gust Speed 21 mph    
Visibility 9 miles    
Events Rain    
Averages and records for this station are not official NWS values.
T = Trace of Precipitation, MM = Missing Value Source: NWS Daily Summary

Daily Weather History Graph

Daily Weather History Graph

Search for Another Location

Airport or City:

Trip Planner

Search our weather history database for the weather conditions in past years. The results will help you decide how hot, cold, wet, or windy it might be!

Date:

Astronomy

Oct. 09, 2013 Rise Set
Actual Time 7:16 AM EDT 6:47 PM EDT
Civil Twilight 6:50 AM EDT 7:12 PM EDT
Nautical Twilight 6:21 AM EDT 7:42 PM EDT
Astronomical Twilight 5:51 AM EDT 8:11 PM EDT
Moon 12:01 PM EDT (10/9) 10:28 PM EDT (10/9)
Length of Visible Light 12h 21m
Length of Day
11h 30m
Waxing Crescent, 25% of the Moon is Illuminated
Oct 9
Waxing Crescent
Oct 11
First Quarter
Oct 18
Full
Oct 26
Last Quarter
Nov 3
New

Hourly Weather History & Observations

Time (EDT) Temp. Dew Point Humidity Pressure Visibility Wind Dir Wind Speed Gust Speed Precip Events Conditions
12:15 AM 59.4 °F 50.2 °F 72% 30.16 in 10.0 mi North 4.6 mph - N/A   Overcast
12:35 AM 59.4 °F 50.4 °F 72% 30.16 in 10.0 mi North 8.1 mph - N/A   Overcast
12:55 AM 59.4 °F 50.9 °F 74% 30.15 in 10.0 mi North 8.1 mph - N/A   Overcast
1:15 AM 59.5 °F 51.1 °F 74% 30.15 in 10.0 mi North 5.8 mph - N/A   Overcast
1:35 AM 59.4 °F 51.3 °F 75% 30.15 in 10.0 mi North 5.8 mph - N/A   Overcast
1:55 AM 59.4 °F 51.4 °F 75% 30.14 in 10.0 mi North 10.4 mph - N/A   Overcast
2:15 AM 59.5 °F 51.4 °F 75% 30.13 in 10.0 mi North 9.2 mph 16.1 mph N/A   Overcast
2:35 AM 59.5 °F 51.4 °F 75% 30.13 in 10.0 mi North 9.2 mph 16.1 mph N/A   Overcast
2:55 AM 59.5 °F 51.4 °F 75% 30.12 in 10.0 mi North 6.9 mph - N/A   Overcast
3:15 AM 59.0 °F 51.3 °F 75% 30.12 in 10.0 mi North 6.9 mph - N/A   Scattered Clouds
3:35 AM 59.0 °F 51.8 °F 77% 30.11 in 10.0 mi North 8.1 mph - N/A   Mostly Cloudy
3:55 AM 59.0 °F 51.4 °F 76% 30.11 in 10.0 mi North 8.1 mph - N/A   Scattered Clouds
4:15 AM 58.6 °F 51.1 °F 76% 30.12 in 10.0 mi North 5.8 mph - N/A   Mostly Cloudy
4:35 AM 58.1 °F 50.9 °F 77% 30.11 in 10.0 mi North 5.8 mph - N/A   Scattered Clouds
4:55 AM 58.1 °F 50.7 °F 76% 30.12 in 10.0 mi North 5.8 mph - N/A   Scattered Clouds
5:15 AM 58.3 °F 50.4 °F 75% 30.12 in 10.0 mi North 8.1 mph - N/A   Mostly Cloudy
5:35 AM 58.5 °F 50.4 °F 74% 30.12 in 10.0 mi North 5.8 mph - N/A   Overcast
5:55 AM 58.5 °F 50.0 °F 73% 30.12 in 10.0 mi North 9.2 mph - N/A   Overcast
6:15 AM 58.6 °F 49.8 °F 72% 30.12 in 10.0 mi North 4.6 mph - N/A   Overcast
6:35 AM 59.0 °F 50.0 °F 72% 30.12 in 10.0 mi North 8.1 mph - N/A   Overcast
6:55 AM 59.0 °F 50.0 °F 72% 30.12 in 10.0 mi North 6.9 mph - N/A   Overcast
7:15 AM 59.0 °F 50.2 °F 73% 30.12 in 10.0 mi North 6.9 mph - N/A   Overcast
7:35 AM 59.2 °F 50.2 °F 72% 30.12 in 10.0 mi North 4.6 mph - N/A   Overcast
7:55 AM 59.4 °F 50.9 °F 74% 30.12 in 10.0 mi North 11.5 mph - N/A   Overcast
8:15 AM 59.5 °F 50.7 °F 73% 30.13 in 10.0 mi North 4.6 mph - N/A   Overcast
8:35 AM 59.5 °F 51.3 °F 74% 30.13 in 10.0 mi North 6.9 mph - N/A Rain Light Rain
8:55 AM 60.3 °F 51.4 °F 73% 30.13 in 10.0 mi North 11.5 mph 17.3 mph N/A   Overcast
9:15 AM 60.1 °F 52.2 °F 75% 30.14 in 10.0 mi North 3.5 mph - N/A   Overcast
9:35 AM 60.6 °F 51.8 °F 73% 30.14 in 10.0 mi North 8.1 mph - N/A   Overcast
9:55 AM 61.0 °F 52.2 °F 73% 30.15 in 10.0 mi North 5.8 mph 17.3 mph N/A   Overcast
10:15 AM 61.2 °F 52.3 °F 73% 30.15 in 10.0 mi North 5.8 mph - N/A   Overcast
10:35 AM 61.5 °F 52.9 °F 73% 30.15 in 10.0 mi North 5.8 mph - N/A   Overcast
10:55 AM 61.0 °F 53.8 °F 77% 30.15 in 7.0 mi North 8.1 mph - N/A   Light Drizzle
11:15 AM 62.1 °F 53.8 °F 74% 30.15 in 10.0 mi North 10.4 mph 16.1 mph N/A   Overcast
11:35 AM 62.8 °F 54.1 °F 73% 30.14 in 10.0 mi North 6.9 mph 16.1 mph N/A   Overcast
11:55 AM 61.9 °F 54.5 °F 77% 30.14 in 10.0 mi North 8.1 mph - N/A   Overcast
12:15 PM 62.6 °F 54.5 °F 75% 30.14 in 10.0 mi North 8.1 mph 16.1 mph N/A   Overcast
12:35 PM 63.3 °F 54.9 °F 74% 30.13 in 10.0 mi NNW 9.2 mph - N/A   Overcast
12:55 PM 63.3 °F 55.0 °F 74% 30.13 in 10.0 mi North 6.9 mph 16.1 mph N/A   Overcast
1:15 PM 63.7 °F 54.7 °F 72% 30.13 in 10.0 mi North 10.4 mph 19.6 mph N/A   Overcast
1:35 PM 63.7 °F 55.2 °F 74% 30.12 in 10.0 mi North 9.2 mph - N/A   Overcast
1:55 PM 64.4 °F 55.2 °F 72% 30.11 in 10.0 mi NNW 10.4 mph 18.4 mph N/A   Overcast
2:15 PM 64.4 °F 55.2 °F 72% 30.11 in 10.0 mi North 9.2 mph 19.6 mph N/A   Overcast
2:35 PM 65.1 °F 55.4 °F 71% 30.11 in 10.0 mi North 11.5 mph 17.3 mph N/A   Overcast
2:55 PM 64.6 °F 54.9 °F 71% 30.11 in 10.0 mi North 10.4 mph 20.7 mph N/A   Overcast
3:15 PM 64.4 °F 54.9 °F 71% 30.10 in 10.0 mi North 11.5 mph 19.6 mph N/A   Overcast
3:35 PM 63.5 °F 54.7 °F 73% 30.11 in 10.0 mi North 11.5 mph 20.7 mph N/A   Overcast
3:55 PM 63.7 °F 54.7 °F 72% 30.10 in 10.0 mi North 11.5 mph 19.6 mph N/A   Overcast
4:15 PM 63.7 °F 54.5 °F 72% 30.10 in 10.0 mi North 9.2 mph 16.1 mph N/A   Overcast
4:55 PM 63.1 °F 54.1 °F 72% 30.09 in 10.0 mi North 9.2 mph - N/A   Overcast
5:15 PM 62.8 °F 54.3 °F 74% 30.10 in 10.0 mi NNW 6.9 mph - N/A   Overcast
5:35 PM 62.1 °F 54.0 °F 75% 30.10 in 10.0 mi NNW 8.1 mph 17.3 mph N/A   Overcast
5:55 PM 61.7 °F 53.8 °F 75% 30.10 in 10.0 mi North 9.2 mph 20.7 mph N/A   Overcast
6:15 PM 61.3 °F 53.8 °F 76% 30.10 in 10.0 mi North 9.2 mph 19.6 mph N/A   Overcast
6:35 PM 61.0 °F 53.6 °F 77% 30.10 in 10.0 mi North 6.9 mph 18.4 mph N/A   Overcast
6:55 PM 60.8 °F 53.6 °F 77% 30.09 in 10.0 mi North 8.1 mph 17.3 mph N/A   Overcast
7:15 PM 60.4 °F 53.6 °F 78% 30.10 in 7.0 mi North 6.9 mph - N/A   Overcast
7:55 PM 58.1 °F 57.2 °F 97% 30.09 in 4.0 mi NNW 6.9 mph - 0.01 in   Drizzle
8:15 PM 57.7 °F 57.2 °F 98% 30.09 in 4.0 mi NNW 6.9 mph - N/A   Light Drizzle
8:35 PM 57.6 °F 57.2 °F 99% 30.09 in 5.0 mi NNW 8.1 mph - 0.01 in   Overcast
8:55 PM 57.6 °F 56.8 °F 97% 30.08 in 7.0 mi NNW 6.9 mph 16.1 mph 0.01 in   Overcast
9:15 PM 57.2 °F 56.5 °F 97% 30.08 in 5.0 mi NNW 9.2 mph - N/A   Light Drizzle
9:35 PM 57.2 °F 56.3 °F 97% 30.08 in 5.0 mi NNW 11.5 mph 16.1 mph N/A   Light Drizzle
9:55 PM 57.2 °F 56.3 °F 97% 30.08 in 7.0 mi NNW 6.9 mph - N/A   Overcast
10:15 PM 57.2 °F 56.3 °F 97% 30.07 in 7.0 mi NNW 9.2 mph 16.1 mph N/A   Overcast
10:35 PM 57.0 °F 56.1 °F 97% 30.08 in 7.0 mi North 8.1 mph - 0.01 in   Overcast
10:55 PM 57.2 °F 55.9 °F 96% 30.07 in 10.0 mi NNW 10.4 mph - 0.01 in   Overcast
11:15 PM 57.2 °F 55.8 °F 95% 30.07 in 10.0 mi NNW 6.9 mph - N/A   Overcast
11:35 PM 57.2 °F 55.6 °F 94% 30.07 in 10.0 mi NNW 6.9 mph - N/A   Overcast
11:55 PM 57.2 °F 55.4 °F 94% 30.06 in 10.0 mi NNW 8.1 mph - N/A   Overcast